Simultaneous Nadir Overpasses (SNOs) Predictions

Prediction of SNOs between GOES-15 and LANDSAT-8 Satellite Orbit:

Table of predicted SNOs for the next 14.0 days since TLE Epoch: 10/12/2024
Index Date Time (GOES-15) GOES-15 Lat,Lon LANDSAT-8 Lat,Lon Distance(km) Time Diff (sec)
1 10/12/2024 06:05:21 -0.30, 61.23 -0.47, 62.00 87.53 80
2 10/14/2024 05:53:11 -0.30, 61.23 -1.08, 64.95 422.48 80
3 10/14/2024 18:14:35 0.30, 61.35 -0.05, 59.77 180.63 80
4 10/16/2024 17:59:44 0.30, 61.36 0.59, 62.72 154.45 80
5 10/17/2024 06:21:00 -0.30, 61.26 0.46, 57.56 420.43 80
6 10/18/2024 17:47:31 0.30, 61.38 1.19, 65.69 489.58 80
7 10/19/2024 06:08:47 -0.30, 61.28 -0.16, 60.52 85.11 80
8 10/21/2024 05:59:12 -0.30, 61.30 -0.74, 63.50 250.16 80
9 10/21/2024 18:20:35 0.29, 61.41 -0.39, 58.32 351.26 80
10 10/23/2024 18:08:19 0.28, 61.43 0.23, 61.30 16.20 80
11 10/25/2024 17:53:22 0.28, 61.46 0.85, 64.28 320.01 80
